Location: Bannatyne
(13.0833°N, 59.5333°W)
Time: 14:57:34
(UTC+00:00)

deb Explorer IX - Pass Details

Date: 02 February 2020
Orbit: 549 x 1099 km, 38.8° (Epoch: 22 February)

Event Time Altitude Azimuth Distance (km) Brightness Sun altitude
Rises 21:26:41 0° 272° (W) 3,050 ? 6.7°
Reaches altitude 10° 21:29:41 10° 292° (WNW) 2,236 ? 6.0°
Maximum altitude 21:33:13 18° 334° (NNW) 1,873 ? 5.2°
Drops below altitude 10° 21:37:06 10° 16° (NNE) 2,494 ? 4.3°
Sets 21:40:44 0° 34° (NE) 3,554 ? 3.5°
